[[{"header":{"parameterUnit":"m.s-1","parameterCategory":1,"la1":30.2991,"la2":30.254,"lo1":-89.0895,"lo2":-89.0444,"dy":0.0017,"dx":0.0017,"nx":28,"ny":28,"refTime":"2023-09-23T21:00:00:Z","depth":0,"parameterNumber":2,"parameterNumberName":"U-component_of_WINDS"},"data":[0,0,0,0,0,0,0,0,0,0,0,0,0,0,0,0,0,0,0,0,0,0,0,0,0,0,0,0,0,0,0,0,0,0,0,0,0,0,0,0,0,0,0,0,0,0,0,0,0,0,0,0,0,0,0,0,0,0,1.3338,1.3338,0,1.3359,1.3359,1.3359,1.3382,1.3382,1.3383,1.3383,1.3403,1.3403,1.3403,0,0,0,0,0,0,0,0,0,0,0,0,0,1.3316,1.3316,1.3338,1.3338,1.3339,1.3359,1.3359,1.3359,1.3382,1.3382,1.3383,1.3383,1.3402,1.3403,1.3403,0,0,0,0,0,0,0,0,0,0,0,0,0,1.333,1.3316,1.3338,1.3352,1.3354,1.3359,1.3359,1.3359,1.3382,1.3382,1.3383,1.3383,1.3402,1.3403,1.3403,1.3395,0,0,1.3404,1.3404,0,0,0,0,0,0,0,0,1.3329,1.3331,1.335,1.3351,1.3353,1.3368,1.3358,1.3371,1.3382,1.3371,1.3383,1.3384,1.3391,1.3392,1.3395,1.3396,1.3397,1.3404,1.3404,1.3404,1.3404,0,0,0,0,0,0,0,1.3328,1.333,1.3346,1.335,1.3352,1.3357,1.336,1.3361,1.3378,1.3372,1.3374,1.3376,1.3392,1.3394,1.3395,1.3397,1.3404,1.3404,1.3404,1.3405,1.3392,1.3391,0,0,0,0,0,0,1.3325,1.3329,1.3346,1.3347,1.3342,1.3357,1.336,1.3363,1.3378,1.3381,1.3376,1.3377,1.3394,1.3395,1.3396,1.3387,1.3404,1.3405,1.3405,1.3392,1.3392,1.3391,0,0,0,0,0,0,1.3325,1.3326,1.3345,1.3338,1.3341,1.3357,1.336,1.3363,1.3366,1.3381,1.3383,1.3376,1.3394,1.3396,1.3395,1.3388,1.3405,1.3405,1.3393,1.3392,1.3392,1.3369,0,0,0,0,0,0,1.3324,1.3326,1.3324,1.3338,1.3341,1.3344,1.336,1.3363,1.3367,1.3369,1.3381,1.3384,1.3395,1.3394,1.3395,1.3389,1.3405,1.3394,1.3393,1.3392,1.3371,1.3368,1.3366,0,0,0,0,0,1.3323,1.3316,1.3323,1.3325,1.3339,1.3343,1.3345,1.3358,1.3366,1.3363,1.3373,1.3383,1.3389,1.3394,1.3395,1.3389,1.3394,1.3393,1.3392,1.3372,1.3369,1.3366,0,0,0,0,0,0,1.33,1.3319,1.3327,1.3325,1.3332,1.3347,1.3344,1.3354,1.3359,1.3361,1.3377,1.3379,1.3377,1.3383,1.3388,1.3382,1.3393,1.3392,1.3378,1.3374,1.3372,1.337,1.3406,0,0,0,0,0,1.3295,1.3298,1.3314,1.331,1.3314,1.3328,1.3331,1.334,1.3349,1.3352,1.3361,1.3368,1.3372,1.3374,1.3377,1.3372,1.3375,1.3368,1.3366,1.3363,1.3362,1.3359,1.3356,1.3387,1.3387,1.3387,0,0,1.3284,1.3294,1.3295,1.3306,1.3313,1.3315,1.3331,1.3332,1.3334,1.3352,1.3352,1.3359,1.3368,1.3365,1.3364,1.337,1.3354,1.3362,1.336,1.336,1.3357,1.3354,1.3352,1.3387,1.3387,1.3387,0,0,1.3265,1.3274,1.3271,1.3278,1.3289,1.3299,1.3298,1.3312,1.3317,1.3318,1.3331,1.3333,1.3338,1.3344,1.3348,1.3331,1.334,1.3331,1.3317,1.3314,1.3312,1.3309,1.3303,1.33,1.333,1.333,1.333,0,1.325,1.3254,1.3269,1.327,1.3273,1.3291,1.3288,1.3294,1.3305,1.3307,1.3314,1.3321,1.3328,1.3326,1.3322,1.3325,1.3324,1.333,1.3311,1.3309,1.3307,1.3301,1.3298,1.3329,1.3329,1.3329,1.3329,0,1.3234,1.3237,1.3234,1.3245,1.3248,1.3247,1.3261,1.3263,1.3272,1.3281,1.3281,1.329,1.3296,1.3297,1.3305,1.3296,1.3299,1.3308,1.332,1.3303,1.3297,1.3295,1.3327,1.3328,1.3328,1.3328,0,0,1.3201,1.322,1.3219,1.3224,1.3237,1.3239,1.3238,1.3245,1.3245,1.3252,1.3252,1.3256,1.3265,1.3269,1.3278,1.3276,1.3261,1.3285,1.3286,1.3279,1.3249,1.3242,1.3239,1.3267,1.3267,1.3267,1.3248,0,1.3184,1.3184,1.3198,1.3194,1.3196,1.3213,1.3212,1.322,1.3228,1.323,1.3239,1.3242,1.3253,1.3256,1.3254,1.3263,1.3255,1.3264,1.3266,1.3266,1.3262,1.3236,1.3228,1.321,1.3246,1.3246,1.3246,0,1.3163,1.317,1.3166,1.3179,1.3181,1.318,1.3187,1.3189,1.3198,1.3204,1.3208,1.3219,1.3219,1.3231,1.323,1.3236,1.3238,1.3242,1.3242,1.3242,1.3254,1.3234,1.3205,1.3202,1.3242,1.3243,1.3243,0,1.3138,1.3146,1.3145,1.3149,1.3164,1.3163,1.3169,1.3178,1.3181,1.3187,1.3189,1.3194,1.3197,1.32,1.3212,1.322,1.321,1.3222,1.3214,1.3213,1.321,1.321,1.318,1.3213,1.3213,1.3213,1.3213,0,1.3117,1.3114,1.3134,1.3133,1.313,1.3146,1.3142,1.315,1.3158,1.3158,1.3173,1.3173,1.3189,1.3191,1.32,1.3198,1.3199,1.3203,1.3205,1.3201,1.3201,1.3202,1.3203,1.3212,1.3212,1.3212,1.3212,0,1.3088,1.3101,1.3101,1.3116,1.3119,1.3116,1.3128,1.3128,1.3137,1.3138,1.3139,1.3153,1.3155,1.3168,1.3173,1.318,1.3174,1.3179,1.3171,1.3172,1.3162,1.3163,1.3131,1.3127,1.3163,1.3163,1.3163,0,1.3073,1.3071,1.3086,1.3087,1.3093,1.3096,1.3099,1.3114,1.3116,1.3126,1.3124,1.3128,1.3132,1.3135,1.3145,1.3149,1.3154,1.3143,1.3155,1.3151,1.3153,1.3153,1.3152,1.314,1.314,1.3139,1.3139,0,1.3045,1.3051,1.3055,1.3062,1.3065,1.307,1.3077,1.3077,1.3094,1.3096,1.3099,1.3102,1.3108,1.3111,1.3117,1.3123,1.3133,1.3135,1.3133,1.3128,1.3123,1.3125,1.3163,1.3136,1.3136,1.3136,1.3136,1.3137,1.3022,1.3021,1.3031,1.3034,1.3041,1.3046,1.3047,1.3056,1.3059,1.3065,1.3074,1.3076,1.3084,1.3093,1.3098,1.3099,1.3105,1.3103,1.3102,1.3101,1.3098,1.3124,1.31,1.3101,1.3101,1.3101,1.3101,0,1.2993,1.3,1.3004,1.3013,1.3015,1.3026,1.3034,1.3035,1.3037,1.3044,1.3048,1.3051,1.3054,1.3065,1.3069,1.3068,1.3073,1.3069,1.3068,1.3069,1.3093,1.3094,1.3065,1.3065,1.3065,1.3065,1.3065,1.3065,1.2979,1.2977,1.2985,1.2987,1.2994,1.2997,1.3,1.3005,1.301,1.3014,1.3017,1.3024,1.3032,1.3037,1.3041,1.3044,1.3044,1.3038,1.3042,1.3064,1.3068,1.3071,1.3072,1.3038,1.3038,1.3019,1.3018,1.3018]},{"header":{"parameterUnit":"m.s-1","parameterCategory":1,"la1":30.2991,"la2":30.254,"lo1":-89.0895,"lo2":-89.0444,"dy":0.0017,"dx":0.0017,"nx":28,"ny":28,"refTime":"2023-09-23T21:00:00:Z","depth":0,"parameterNumber":3,"parameterNumberName":"V-component_of_WINDS"},"data":[0,0,0,0,0,0,0,0,0,0,0,0,0,0,0,0,0,0,0,0,0,0,0,0,0,0,0,0,0,0,0,0,0,0,0,0,0,0,0,0,0,0,0,0,0,0,0,0,0,0,0,0,0,0,0,0,0,0,1.1223,1.1224,0,1.1317,1.1318,1.1319,1.1339,1.1338,1.1337,1.1336,1.1433,1.1436,1.1439,0,0,0,0,0,0,0,0,0,0,0,0,0,1.1062,1.1065,1.1223,1.1225,1.1226,1.1316,1.1318,1.1319,1.1339,1.1338,1.1337,1.1336,1.1432,1.1436,1.144,0,0,0,0,0,0,0,0,0,0,0,0,0,1.1141,1.1066,1.1223,1.1246,1.1249,1.1316,1.1318,1.1319,1.1339,1.1338,1.1337,1.1336,1.1431,1.1435,1.144,1.1491,0,0,1.1455,1.1457,0,0,0,0,0,0,0,0,1.1137,1.1147,1.1242,1.1245,1.1248,1.1315,1.1296,1.1377,1.1339,1.1305,1.1336,1.1335,1.1395,1.1402,1.1422,1.1495,1.1499,1.1455,1.1458,1.146,1.1462,0,0,0,0,0,0,0,1.1131,1.1143,1.126,1.1243,1.1247,1.1252,1.1262,1.1312,1.1354,1.1308,1.1309,1.132,1.1396,1.1417,1.1425,1.1501,1.1455,1.1459,1.1462,1.1464,1.1619,1.162,0,0,0,0,0,0,1.1122,1.1139,1.1257,1.1263,1.1189,1.1256,1.1267,1.1295,1.1354,1.1362,1.1321,1.1321,1.141,1.1419,1.1428,1.1491,1.146,1.1465,1.1468,1.1617,1.1619,1.162,0,0,0,0,0,0,1.1118,1.1132,1.1254,1.1201,1.1217,1.126,1.129,1.1297,1.1318,1.1364,1.1372,1.1335,1.1409,1.1421,1.1475,1.1494,1.1467,1.1471,1.1616,1.1618,1.162,1.1617,0,0,0,0,0,0,1.1113,1.1131,1.1151,1.1202,1.122,1.1299,1.1292,1.13,1.1326,1.1327,1.1379,1.1387,1.1409,1.1467,1.1479,1.1501,1.1475,1.1614,1.1617,1.1619,1.1615,1.1618,1.1621,0,0,0,0,0,1.1108,1.1147,1.1152,1.1166,1.1246,1.13,1.131,1.1336,1.1328,1.1348,1.1377,1.1385,1.149,1.1473,1.1486,1.1509,1.1613,1.1616,1.1619,1.1614,1.1618,1.1621,0,0,0,0,0,0,1.1098,1.1154,1.116,1.1217,1.1253,1.1303,1.133,1.1339,1.1379,1.1378,1.1407,1.1419,1.147,1.1495,1.1475,1.1561,1.1551,1.1557,1.1543,1.1547,1.1549,1.1543,1.1479,0,0,0,0,0,1.1102,1.1141,1.1188,1.1234,1.1252,1.1287,1.1312,1.1328,1.1367,1.1383,1.1416,1.1454,1.1495,1.1522,1.1563,1.1618,1.163,1.1641,1.1643,1.1645,1.165,1.1681,1.1686,1.1629,1.1629,1.1629,0,0,1.1112,1.1147,1.1171,1.1233,1.1263,1.1303,1.13,1.1343,1.1373,1.139,1.1442,1.1467,1.1511,1.1566,1.1591,1.1588,1.1668,1.1649,1.165,1.1654,1.1684,1.1689,1.1694,1.1631,1.1631,1.163,0,0,1.115,1.1181,1.1222,1.1251,1.1297,1.132,1.1329,1.1378,1.1395,1.1448,1.146,1.1496,1.1567,1.1598,1.1623,1.167,1.1678,1.1682,1.1697,1.1726,1.173,1.1735,1.1751,1.1757,1.1686,1.1686,1.1686,0,1.1157,1.1217,1.1242,1.1283,1.131,1.1325,1.1367,1.1395,1.1451,1.1469,1.1464,1.1552,1.1583,1.1645,1.1656,1.1675,1.1687,1.1677,1.1728,1.1732,1.1736,1.1753,1.1759,1.1686,1.1686,1.1686,1.1686,0,1.1223,1.1265,1.1292,1.1345,1.1375,1.1416,1.1446,1.1473,1.1486,1.1509,1.1562,1.1599,1.1647,1.1662,1.1676,1.1725,1.1722,1.1722,1.1713,1.1741,1.1757,1.1764,1.1687,1.1687,1.1687,1.1687,0,0,1.126,1.1324,1.1334,1.1358,1.1408,1.1441,1.1482,1.1528,1.155,1.1588,1.1623,1.1682,1.1682,1.171,1.1726,1.1752,1.1786,1.1749,1.175,1.1754,1.1843,1.1843,1.185,1.1791,1.1792,1.1793,1.1839,0,1.1305,1.1379,1.1401,1.1464,1.1502,1.1516,1.1552,1.1586,1.1608,1.1644,1.1668,1.171,1.1706,1.1723,1.1749,1.1776,1.1804,1.1773,1.1825,1.1826,1.1814,1.1858,1.1859,1.1901,1.1845,1.1846,1.1847,0,1.1368,1.1405,1.1471,1.1515,1.1532,1.1564,1.1607,1.1641,1.1679,1.1694,1.1724,1.1738,1.1781,1.1768,1.1828,1.1806,1.1828,1.1845,1.1847,1.1854,1.1839,1.1867,1.1915,1.1921,1.1857,1.1856,1.1856,0,1.1388,1.1455,1.1503,1.1523,1.1575,1.1597,1.162,1.1657,1.1683,1.1721,1.1738,1.178,1.1803,1.1835,1.186,1.1849,1.1917,1.1907,1.1931,1.193,1.1946,1.1945,1.1999,1.1958,1.1958,1.1958,1.1958,0,1.1437,1.1477,1.1513,1.1543,1.1588,1.1612,1.1655,1.1679,1.1711,1.1746,1.176,1.1792,1.1821,1.1857,1.1876,1.1922,1.1933,1.1945,1.195,1.1945,1.1943,1.1961,1.1959,1.196,1.1959,1.1959,1.1959,0,1.1468,1.1494,1.1548,1.1592,1.1603,1.1635,1.1672,1.1701,1.1723,1.1766,1.1777,1.1812,1.1854,1.1881,1.1935,1.1948,1.1999,1.2002,1.1986,1.1988,1.201,1.2008,1.2078,1.2089,1.204,1.2041,1.2041,0,1.1498,1.1529,1.1575,1.1599,1.1622,1.166,1.1685,1.171,1.1736,1.1781,1.1805,1.1847,1.1883,1.195,1.198,1.2021,1.2026,1.2048,1.2033,1.2026,1.2027,1.2026,1.2029,1.2051,1.2051,1.2052,1.2052,0,1.1548,1.1559,1.1596,1.1636,1.1666,1.17,1.1733,1.1752,1.1781,1.181,1.1853,1.1881,1.1935,1.1978,1.2021,1.2044,1.2053,1.2056,1.2064,1.2059,1.2049,1.2055,1.1993,1.2055,1.2054,1.2054,1.2054,1.2054,1.158,1.1608,1.1645,1.1685,1.1712,1.1742,1.1771,1.1796,1.1832,1.1878,1.1889,1.1934,1.1971,1.2029,1.2053,1.2089,1.2086,1.2097,1.21,1.2103,1.2103,1.2041,1.2096,1.2096,1.2096,1.2096,1.2096,0,1.1631,1.1655,1.1691,1.1737,1.1768,1.1772,1.1809,1.1835,1.1874,1.1906,1.1941,1.199,1.203,1.2062,1.2104,1.2126,1.2131,1.2136,1.2136,1.2141,1.2103,1.2093,1.2131,1.2131,1.2131,1.2131,1.2131,1.2131,1.1662,1.1708,1.1723,1.1783,1.1807,1.185,1.1871,1.1899,1.1925,1.1978,1.2012,1.2032,1.2064,1.2108,1.2145,1.2154,1.2169,1.2173,1.2182,1.2147,1.2143,1.214,1.213,1.2176,1.2176,1.2217,1.2218,1.2218]}]]